Weather History for Sheridan, WY

Change the Weather History Date:

Monday, March 4, 2013

  Actual Average Record
Temperature  
Mean Temperature 22 °F 31 °F  
Max Temperature 30 °F 44 °F 69 °F (2000)
Min Temperature 13 °F 18 °F -17 °F (1923)
Degree Days  
Heating Degree Days 43 34  
Month to date heating degree days 123 137  
Since 1 July heating degree days 5446 5672  
Cooling Degree Days 0 0  
Month to date cooling degree days 0 0  
Year to date cooling degree days 0 0  
Moisture  
Dew Point 14 °F    
Average Humidity 72    
Maximum Humidity 88    
Minimum Humidity 55    
Precipitation  
Precipitation 0.01 in 0.03 in 0.24 in (1931)
Month to date precipitation 0.01 0.09  
Year to date precipitation 1.76 1.19  
Sea Level Pressure  
Sea Level Pressure 30.14 in    
Wind  
Wind Speed 23 mph (NW)    
Max Wind Speed 36 mph    
Max Gust Speed -    
Visibility 5 miles    
Events Fog , Snow    
T = Trace of Precipitation, MM = Missing Value Source: NWS Daily Summary

Daily Weather History Graph

Daily Weather History Graph

Search for Another Location

Airport:

Trip Planner

Search our weather history database for the weather conditions in past years. The results will help you decide how hot, cold, wet, or windy it might be!

Date:

Astronomy

Mar. 04, 2013 Rise Set
Actual Time 6:39 AM MST 6:00 PM MST
Civil Twilight 6:10 AM MST 6:29 PM MST
Nautical Twilight 5:36 AM MST 7:03 PM MST
Astronomical Twilight 5:02 AM MST 7:37 PM MST
Moon 1:02 AM MST (3/4) 10:33 AM MST (3/4)
Length of Visible Light 12h 18m
Length of Day
11h 20m
Waning Gibbous, 51% of the Moon is Illuminated
Mar 4
Waning Gibbous
Mar 4
Last Quarter
Mar 11
New
Mar 19
First Quarter
Mar 27
Full

Hourly Weather History & Observations

Time (MST) Temp. Windchill Dew Point Humidity Pressure Visibility Wind Dir Wind Speed Gust Speed Precip Events Conditions
12:53 AM 28.9 °F - 16.0 °F 58% 29.87 in 10.0 mi North - - N/A   Partly Cloudy
1:53 AM 28.0 °F - 17.1 °F 63% 29.89 in 9.0 mi North - - N/A   Overcast
2:53 AM 26.1 °F - 12.0 °F 55% 29.92 in 10.0 mi North - - N/A   Overcast
3:53 AM 21.9 °F - 12.0 °F 66% 29.94 in 10.0 mi North - - N/A   Scattered Clouds
4:53 AM 19.9 °F - 10.9 °F 68% 29.99 in 10.0 mi North - - N/A   Clear
4:55 AM 21.2 °F 4.9 °F 10.4 °F 63% 29.87 in 15.0 mi WNW 23.0 mph - N/A   Scattered Clouds
5:53 AM 19.9 °F - 10.9 °F 68% 30.04 in 10.0 mi North - - N/A   Clear
5:54 AM 19.4 °F 2.1 °F 10.4 °F 68% 29.90 in 15.0 mi NW 24.2 mph - N/A   Scattered Clouds
6:53 AM 19.9 °F - 12.0 °F 71% 30.06 in 10.0 mi North - - N/A   Partly Cloudy
6:55 AM 19.4 °F 0.8 °F 12.2 °F 74% 29.92 in 4.0 mi NW 28.8 mph - N/A Snow Blowing Snow
7:27 AM 19.4 °F - 14.0 °F 80% 29.93 in 1.8 mi North - - N/A Snow Light Snow
7:33 AM 19.4 °F - 15.8 °F 86% 29.93 in 0.8 mi North - - 0.00 in Snow Light Snow
7:37 AM 19.4 °F - 15.8 °F 86% 29.93 in 0.2 mi North - - 0.00 in Fog , Snow Light Snow
7:53 AM 19.9 °F - 16.0 °F 85% 30.07 in 0.2 mi North - - 0.00 in Fog , Snow Light Snow
7:57 AM 19.4 °F 1.8 °F 15.8 °F 86% 29.93 in 1.2 mi NW 25.3 mph - N/A Snow Blowing Snow
8:52 AM 19.4 °F -0.3 °F 15.8 °F 86% 29.96 in 0.2 mi NW 33.4 mph - N/A Snow Snow
8:53 AM 19.9 °F - 16.0 °F 85% 30.10 in 0.2 mi North - - 0.01 in Fog , Snow Light Snow
9:52 AM 21.2 °F 2.2 °F 12.2 °F 68% 30.00 in 0.2 mi NW 33.4 mph - N/A Snow Blowing Snow
9:53 AM 21.0 °F - 15.1 °F 78% 30.13 in 0.5 mi North - - 0.00 in Snow Snow
10:19 AM 21.2 °F - 15.8 °F 80% 30.03 in 0.8 mi North - - 0.00 in Snow Light Snow
10:30 AM 21.2 °F - 15.8 °F 80% 30.04 in 0.5 mi North - - 0.00 in Snow Snow
10:46 AM 21.2 °F - 15.8 °F 80% 30.04 in 1.0 mi North - - 0.00 in Snow Light Snow
10:53 AM 21.0 °F - 15.1 °F 78% 30.17 in 0.8 mi North - - 0.00 in Snow Light Snow
10:55 AM 21.2 °F 1.7 °F 12.2 °F 68% 30.04 in 0.8 mi WNW 35.7 mph - N/A Snow Light Snow
11:08 AM 21.2 °F - 14.0 °F 74% 30.04 in 2.5 mi North - - 0.00 in Snow Light Snow
11:16 AM 21.2 °F - 14.0 °F 74% 30.05 in 3.0 mi North - - 0.00 in Snow Light Snow
11:53 AM 21.9 °F - 15.1 °F 75% 30.22 in 3.0 mi North - - 0.00 in Snow Light Snow
11:57 AM 21.2 °F - 15.8 °F 80% 30.09 in 1.8 mi North - - 0.00 in Snow Light Snow
11:59 AM 21.2 °F 3.5 °F 14.0 °F 74% 30.08 in 1.1 mi NW 27.6 mph - N/A Snow Blowing Snow
12:20 PM 21.2 °F - 15.8 °F 80% 30.11 in 0.5 mi North - - 0.00 in Snow Snow
12:25 PM 21.2 °F - 17.6 °F 86% 30.11 in 0.2 mi North - - 0.00 in Fog , Snow Snow
12:53 PM 21.0 °F - 16.0 °F 81% 30.26 in 0.2 mi North - - 0.00 in Snow Heavy Snow
12:55 PM 21.2 °F 3.9 °F 15.8 °F 80% 30.10 in 0.2 mi NNW 26.5 mph - N/A Snow Snow
1:19 PM 21.2 °F - 15.8 °F 80% 30.13 in 0.2 mi North - - 0.01 in Snow Heavy Snow
1:42 PM 21.2 °F - 15.8 °F 80% 30.14 in 0.5 mi North - - 0.01 in Snow Snow
1:48 PM 21.2 °F - 15.8 °F 80% 30.15 in 0.8 mi North - - 0.01 in Snow Light Snow
1:49 PM 21.2 °F - 15.8 °F 80% 30.15 in 0.8 mi North - - 0.01 in Snow Light Snow
1:53 PM 21.0 °F - 16.0 °F 81% 30.29 in 0.8 mi North - - 0.01 in Snow Light Snow
1:55 PM 21.2 °F 5.6 °F 15.8 °F 80% 30.13 in 0.8 mi NNW 20.7 mph - N/A Snow Light Snow
2:06 PM 21.2 °F - 17.6 °F 86% 30.15 in 2.0 mi North - - 0.00 in Snow Light Snow
2:16 PM 21.2 °F - 15.8 °F 80% 30.15 in 1.8 mi North - - 0.00 in Snow Light Snow
2:25 PM 21.2 °F - 15.8 °F 80% 30.15 in 2.5 mi North - - N/A Snow Light Snow
2:33 PM 21.2 °F - 15.8 °F 80% 30.15 in 5.0 mi North - - 0.00 in Snow Light Snow
2:53 PM 21.9 °F - 15.1 °F 75% 30.30 in 6.0 mi North - - 0.00 in Snow Light Snow
3:00 PM 21.2 °F 5.2 °F 14.0 °F 74% 30.15 in 0.8 mi NW 21.9 mph - N/A Snow Light Snow
3:11 PM 23.0 °F - 15.8 °F 74% 30.17 in 2.5 mi North - - 0.00 in Snow Light Snow
3:18 PM 23.0 °F - 14.0 °F 68% 30.17 in 8.0 mi North - - 0.00 in Snow Light Snow
3:53 PM 21.9 °F - 14.0 °F 72% 30.34 in 9.0 mi North - - 0.00 in   Overcast
3:59 PM 23.0 °F 8.0 °F 12.2 °F 63% 30.18 in 10.0 mi NW 20.7 mph - N/A Snow Light Snow
4:53 PM 21.9 °F - 12.9 °F 68% 30.38 in 10.0 mi North - - N/A   Partly Cloudy
4:59 PM 23.0 °F 9.6 °F 12.2 °F 63% 30.22 in 25.0 mi NNW 16.1 mph - N/A   Partly Cloudy
5:53 PM 19.9 °F - 12.0 °F 71% 30.41 in 10.0 mi North - - N/A   Clear
5:58 PM 19.4 °F 8.6 °F 10.4 °F 68% 30.24 in 25.0 mi NNW 9.2 mph - N/A   Partly Cloudy
6:53 PM 18.0 °F - 12.0 °F 78% 30.44 in 10.0 mi North - - N/A   Clear
6:58 PM 17.6 °F 6.4 °F 12.2 °F 79% 30.27 in 15.0 mi NNW 9.2 mph - N/A   Partly Cloudy
7:53 PM 15.1 °F - 10.0 °F 80% 30.47 in 10.0 mi North - - N/A   Clear
7:57 PM 15.8 °F 5.1 °F 10.4 °F 79% 30.28 in 15.0 mi NNW 8.1 mph - N/A   Partly Cloudy
8:53 PM 14.0 °F - 10.0 °F 84% 30.48 in 10.0 mi North - - N/A   Clear
9:00 PM 15.8 °F 6.1 °F 10.4 °F 79% 30.29 in 15.0 mi West 6.9 mph - N/A   Clear
9:53 PM 15.1 °F - 10.0 °F 80% 30.49 in 10.0 mi North - - N/A   Scattered Clouds
10:00 PM 15.8 °F 6.1 °F 10.4 °F 79% 30.33 in 15.0 mi West 6.9 mph - N/A   Clear
10:02 PM 15.8 °F - 10.4 °F 79% 30.30 in 10.0 mi North - - N/A   Mostly Cloudy
10:53 PM 16.0 °F - 10.9 °F 81% 30.48 in 10.0 mi North - - N/A   Overcast